Location: Ingoldesthorpe
(52.8667°N, 0.5167°E)
Time: 19:02:27
(UTC+00:00)

Cosmos 773 Rocket - Pass Details

Date: 19 May 2025
Orbit: 742 x 772 km, 74.1° (Epoch: 22 June)

Event Time Altitude Azimuth Distance (km) Brightness Sun altitude
Exits shadow 21:51:34 10° 190° (S) 2,290 6.0 -12.4°
Reaches altitude 10° 21:51:39 10° 190° (S) 2,260 6.0 -12.4°
Maximum altitude 21:56:41 63° 110° (ESE) 834 4.0 -12.8°
Drops below altitude 10° 22:01:45 10° 31° (NNE) 2,267 6.9 -13.2°
Sets 22:04:07 0° 28° (NNE) 3,194 7.7 -13.3°
